Regional Weather Roundup
Issued by NWS

Home | Current Version | Previous Version | Text Only | Print | Product List | Glossary Off
Versions: 1 2 3 4 5 6 7 8 9 10 11 12 13 14 15 16 17 18 19 20 21 22 23 24 25 26 27 28 29 30 31 32 33 34 35 36 37 38 39 40 41 42 43 44 45 46 47 48 49 50

047
ASUS45 KCYS 240410
RWRWY

WYOMING REGIONAL WEATHER ROUNDUP
NATIONAL WEATHER SERVICE CHEYENNE WY
1000 PM MDT MON APR 23 2018

NOTE:  "FAIR" INDICATES FEW OR NO CLOUDS BELOW 12,000 FEET
WITH NO SIGNIFICANT WEATHER AND/OR OBSTRUCTIONS TO VISIBILITY.

WYZ001-240500-
YELLOWSTONE NATIONAL PARK

CITY           SKY/WX    TMP DP  RH WIND       PRES   REMARKS
LK YELLOWSTONE   N/A     25  19  78 VRB3      30.38R
W YELLOWSTONE  NOT AVBL

$$
WYZ002>013-054>058-071-098>099-240500-
NORTHERN WYOMING

CITY           SKY/WX    TMP DP  RH WIND       PRES   REMARKS
JACKSON        CLOUDY    37  27  67 N16       30.30R WCI  28
CODY           FLURRIES  33  28  81 N8        30.45R WCI  26
GREYBULL       FAIR      37  30  75 N20       30.38R WCI  27
WORLAND        FAIR      35  31  85 NW12      30.39R WCI  27
SHERIDAN       FLURRIES  35  33  92 NW15      30.45R WCI  25
BUFFALO        CLOUDY    33  29  85 NW16G28   30.40R WCI  23
GILLETTE       CLOUDY    33  31  92 NW20      30.36R WCI  21
HULETT         MIX PCPN  34  32  93 N15G21    30.33R WCI  24
NEWCASTLE      MOCLDY    34  28  80 NW16      30.27R WCI  23

$$
WYZ014>020-022>026-101>103-240500-
CENTRAL WYOMING

CITY           SKY/WX    TMP DP  RH WIND       PRES   REMARKS
BIG PINEY      FAIR      33  23  66 N12       30.27R WCI  24
PINEDALE       FAIR      32  27  80 NW6       30.27R WCI  26
DUBOIS         CLOUDY    30  28  93 SE8       30.32R WCI  23
LANDER         CLOUDY    34  27  75 E12       30.37R WCI  25
RIVERTON       CLOUDY    34  24  67 NE24G30   30.36R WCI  21
CASPER         CLOUDY    32  28  85 NE16      30.37R WCI  21
DOUGLAS        CLOUDY    34  29  82 N21G29    30.36R WCI  22

$$
WYZ021-027>030-104>119-240500-
SOUTHERN WYOMING

CITY           SKY/WX    TMP DP  RH WIND       PRES   REMARKS
EVANSTON       FAIR      38  23  55 N10       30.27R WCI  31
KEMMERER       FAIR      36  23  60 N9        30.28R WCI  29
FORT BRIDGER   FAIR      39  20  46 NW7       30.30R WCI  34
ROCK SPRINGS   FAIR      33  25  72 NE21G28   30.30R WCI  21
DIXON          FAIR      44  31  60 N17G23    30.24R
RAWLINS        MOCLDY    35  27  72 NE9       30.30R WCI  28
SARATOGA       FAIR      34  30  86 NW13      30.28R WCI  25
LARAMIE        CLOUDY    34  33  96 NE10      30.25R WCI  26
CHEYENNE       MOCLDY    34  31  88 MISG      30.24R
TORRINGTON     FAIR      38  34  85 N20G31    30.27R WCI  28
PINE BLUFFS    CLOUDY    37  36  93 N16G25    30.25R WCI  28

$$




USA.gov is the U.S. government's official web portal to all federal, state and local government web resources and services.